Temperature
19 20 20 19 18 17 17 17 17 17 16 16 16 15 15 15 15 15 15 15 15 15 15 15 15 15 15 15 15 15 15 15 15 15 16 16 16 16 15 15 14 13 13
21 20 20 19 18 17 17 17 17 17 16 16 16 15 15 15 15 15 15 15 15 15 15 15 15 15 15 15 15 15 15 15 15 15 15 15 15 15 15 15 14 13 13
20 20 20 19 18 17 17 17 17 17 16 16 16 16 15 15 15 15 15 15 15 15 15 15 15 15 15 15 14 14 14 15 15 15 15 15 15 15 15 14 14 14 14
20 20 20 19 18 18 17 17 17 17 16 16 16 16 16 16 15 15 15 15 15 15 15 15 15 15 15 15 14 14 14 15 15 15 14 14 14 14 14 14 14 14 14
20 20 19 19 18 18 17 17 17 16 16 16 17 17 16 16 15 15 15 15 15 15 15 15 15 15 15 15 14 14 14 14 14 14 14 14 14 14 14 14 14 14 13
19 19 19 18 18 18 18 17 17 16 16 17 17 17 17 17 16 16 15 15 15 15 15 16 15 15 15 15 15 14 14 14 14 14 14 14 14 14 14 13 13 13 13
19 19 18 18 18 18 18 17 17 17 16 17 17 17 17 17 17 16 16 16 15 16 16 16 16 15 15 15 15 15 15 15 14 14 14 14 14 13 13 13 13 13 13
18 18 18 17 18 18 17 17 17 17 17 17 17 17 17 17 17 17 17 16 16 16 16 16 16 16 16 15 15 15 15 15 15 14 14 14 14 13 13 13 13 13 13
18 18 18 17 17 17 18 18 17 17 17 17 17 17 17 17 17 17 17 17 16 16 16 16 16 16 16 16 15 15 15 15 15 15 14 14 14 13 13 13 13 13 13
17 17 18 18 18 18 18 18 18 17 17 17 17 17 17 17 18 17 17 17 17 16 16 16 16 16 16 16 16 15 15 15 15 15 15 14 14 13 13 13 13 13 13
17 17 17 18 18 18 18 18 17 17 17 17 18 18 18 18 17 17 17 17 17 16 16 16 16 16 16 16 16 15 15 15 15 15 15 14 14 14 13 13 13 13 13
17 17 17 17 18 18 18 18 18 17 17 17 18 18 18 17 17 17 17 17 17 16 16 16 16 16 16 16 16 15 15 15 15 15 14 14 14 14 14 13 13 13 13
17 17 17 17 17 17 18 18 18 17 17 17 17 17 17 17 17 17 17 17 17 16 16 16 16 16 16 15 15 15 15 15 15 15 14 14 14 14 14 13 13 13 13
17 17 17 17 17 17 17 17 17 17 17 17 17 17 17 17 17 17 17 17 16 16 16 16 16 16 15 15 15 15 15 15 15 14 14 14 13 13 13 13 13 13 13
17 17 17 17 17 17 17 17 17 17 17 17 17 17 16 17 17 17 17 16 16 16 16 16 16 15 15 15 15 15 15 15 14 14 14 14 13 13 13 13 13 13 13
17 17 17 17 17 17 17 17 17 17 17 17 17 16 16 16 16 16 16 16 16 16 15 15 15 15 15 15 15 14 14 14 14 14 14 13 13 13 13 13 13 13 13
17 17 17 17 16 16 16 16 16 16 16 16 16 16 16 16 16 15 15 16 15 15 15 14 14 14 14 14 14 14 14 14 14 14 13 13 13 13 12 12 12 12 12
17 17 17 16 16 16 16 16 16 16 16 16 16 16 16 16 15 15 15 15 15 14 14 14 14 13 13 13 13 13 13 13 13 13 13 13 12 12 12 12 12 12 12
18 17 17 17 16 16 16 16 16 16 16 16 16 16 16 15 15 15 15 15 14 14 14 13 13 13 13 13 12 12 12 12 12 12 13 12 12 12 12 12 12 11 11
17 17 17 17 16 16 16 16 15 15 16 16 16 16 15 15 15 14 14 14 14 13 13 13 13 13 12 12 12 12 12 12 12 12 12 12 12 12 11 11 11 11 11
17 17 17 17 16 16 16 15 15 15 15 15 15 15 15 15 14 14 14 14 14 13 13 13 13 13 12 12 12 12 12 11 11 11 11 11 11 11 11 11 11 11 10
17 17 16 16 16 16 16 15 15 15 15 15 15 15 15 14 14 14 14 14 13 13 13 13 13 13 13 12 12 12 11 11 12 11 11 11 11 11 11 11 10 10 10
16 16 16 15 15 15 15 15 15 15 15 14 14 14 14 14 14 14 13 13 13 13 13 13 13 13 12 12 12 12 11 11 12 12 12 12 11 11 11 10 10 10 9
15 15 14 14 14 14 14 14 14 14 14 14 14 14 14 14 14 13 13 13 13 13 13 12 12 12 12 12 12 12 11 11 11 11 12 12 11 11 11 10 10 9 9
13 13 13 13 13 13 13 13 13 13 13 13 13 13 13 13 13 13 13 13 12 12 12 12 12 12 12 12 12 11 11 11 10 10 10 11 11 11 11 10 10 9 9
12 12 12 12 12 12 12 12 12 12 12 12 12 12 13 13 13 13 12 12 12 12 12 12 12 12 11 11 11 11 11 10 10 10 10 10 10 10 10 10 10 9 9
Wind_Speed
8 15 21 19 18 16 15 15 15 15 15 15 15 14 12 11 10 10 11 12 13 14 15 15 14 14 14 15 16 17 18 17 16 15 15 14 14 14 13 12 11 10 11
11 17 21 20 18 17 16 16 16 16 16 16 15 13 12 10 10 11 13 14 15 15 15 15 14 14 14 15 15 16 16 16 15 14 13 13 12 12 12 11 10 9 10
14 17 20 20 19 17 17 17 17 17 17 16 14 13 12 11 11 12 14 15 15 16 15 15 14 14 14 14 14 14 13 12 10 10 9 9 9 10 10 9 8 9 9
17 17 18 20 19 18 18 18 18 18 17 16 14 13 12 11 12 14 15 15 16 15 15 14 13 13 12 12 12 11 10 9 7 7 7 7 7 9 9 9 8 8 8
14 15 18 21 20 19 18 18 19 18 17 16 14 13 12 12 14 15 15 15 15 14 14 13 12 11 10 10 10 9 9 9 10 11 9 8 7 9 9 9 9 10 10
10 15 18 20 20 19 19 19 19 18 17 15 14 13 12 12 14 14 14 14 14 13 13 12 10 9 8 8 8 8 9 10 13 12 9 8 7 9 10 11 12 13 13
10 14 17 19 19 19 19 19 19 18 17 16 14 13 13 13 13 13 13 13 13 12 12 11 9 8 6 6 6 7 9 11 13 11 9 8 8 10 11 12 13 13 13
12 13 16 18 19 19 19 19 19 18 17 16 15 14 13 13 13 12 12 12 12 11 11 10 9 7 5 4 4 6 8 9 10 9 9 9 10 12 13 14 14 14 13
13 12 13 16 17 18 18 18 18 18 18 17 16 14 13 12 12 12 12 12 11 11 10 9 8 7 5 3 2 3 6 7 10 9 8 9 11 12 13 13 12 12 12
8 8 10 13 14 15 16 17 18 18 18 18 17 16 15 13 12 11 11 11 11 10 9 8 7 6 5 4 3 2 3 6 9 10 9 10 11 12 12 11 11 11 11
8 7 8 10 12 13 13 14 17 18 18 17 17 18 16 14 12 11 11 10 10 10 9 8 7 6 5 4 3 1 2 4 9 10 10 11 12 12 11 10 10 10 10
9 8 7 8 10 12 11 12 14 14 15 15 15 16 15 14 13 11 11 11 11 10 9 8 8 6 5 4 4 2 1 4 7 10 11 13 12 12 11 10 9 9 9
10 9 8 7 10 11 9 11 11 12 13 14 16 16 14 13 11 10 10 11 11 11 9 8 7 7 6 6 5 4 3 6 8 10 12 14 13 12 11 10 10 9 9
9 9 9 8 8 10 10 10 11 10 11 11 15 17 14 10 9 9 10 12 12 12 11 9 8 9 8 9 9 7 5 7 10 11 13 15 14 12 11 11 10 10 10
8 9 9 9 8 9 9 8 9 10 11 13 15 16 16 11 8 10 10 12 13 13 12 10 10 9 9 10 10 9 7 9 12 13 14 16 15 14 13 12 11 11 11
9 9 8 9 8 10 7 6 7 11 12 13 14 17 18 15 11 10 10 11 13 14 14 13 12 9 8 9 8 10 9 11 13 14 15 16 17 16 15 14 13 13 12
9 9 9 9 8 8 8 8 8 10 12 12 14 17 19 17 14 12 9 9 13 15 15 12 11 10 7 6 6 8 9 11 13 15 16 16 17 18 17 16 15 15 14
7 7 8 8 8 8 7 7 7 9 10 10 13 15 17 18 17 14 8 8 14 14 12 7 6 6 7 6 6 5 6 8 11 14 16 17 17 17 18 18 17 17 16
6 5 5 4 6 7 7 6 7 8 8 9 11 12 14 16 16 14 9 10 13 10 8 8 8 6 7 7 6 6 5 5 7 12 12 16 18 18 19 19 19 19 18
6 5 4 3 1 2 3 3 3 5 5 8 9 11 13 13 14 13 9 9 10 6 7 7 8 7 6 6 6 6 6 5 5 6 10 14 16 19 20 19 19 19 19
7 7 5 5 3 2 1 2 3 4 5 4 6 11 12 12 13 11 7 7 7 9 10 9 8 8 7 4 4 3 4 4 6 6 7 8 12 17 19 20 19 19 18
6 6 6 5 4 2 1 1 2 3 3 4 4 7 10 12 13 11 8 8 8 8 9 10 9 6 6 6 5 3 4 4 6 7 7 9 9 12 15 18 19 20 19
7 6 5 5 5 4 2 1 1 1 2 2 2 3 5 9 11 11 10 8 8 9 9 10 10 10 9 7 6 6 5 8 5 4 7 9 9 8 9 14 17 19 21
5 5 6 6 6 5 4 3 2 0 2 3 3 4 5 6 8 10 10 9 9 8 9 10 10 10 10 8 6 6 5 4 5 4 4 5 7 9 10 9 14 18 20
5 5 6 6 7 6 6 5 3 2 2 3 3 4 5 4 5 7 8 7 9 8 9 10 9 10 10 10 8 5 6 4 4 5 6 4 4 7 9 10 11 16 20
5 6 6 7 6 6 6 6 5 4 4 4 4 5 4 4 4 5 5 5 6 7 8 9 9 10 10 11 9 7 6 5 7 8 11 8 6 5 6 8 9 12 17
Wind_Direction
155 160 152 148 146 145 143 141 139 137 133 127 120 112 106 101 100 105 107 107 105 102 98 92 88 86 85 86 89 90 89 87 85 85 83 80 79 85 87 80 78 81 88
148 156 151 148 147 145 142 138 136 134 130 126 120 114 110 106 107 110 110 110 107 103 100 95 92 90 90 91 93 93 92 91 89 88 84 82 84 86 86 85 83 87 88
143 151 150 147 145 143 139 136 134 132 129 125 120 115 112 111 111 114 113 110 108 105 102 99 97 96 94 95 95 94 93 92 91 92 88 84 87 90 90 88 87 89 86
143 147 150 147 145 143 139 137 134 132 129 125 120 117 117 115 116 116 114 111 110 108 105 103 102 100 98 97 96 91 85 86 94 111 100 89 90 94 93 93 92 94 91
136 143 150 147 146 145 142 139 137 134 131 128 124 122 123 120 116 113 114 113 114 113 111 110 108 104 100 97 93 82 74 79 104 115 108 95 90 93 89 88 91 94 93
129 139 149 147 147 146 144 142 140 137 135 132 130 130 131 127 120 117 118 120 121 121 119 117 114 109 103 97 87 73 70 94 117 118 107 96 92 96 97 94 93 90 86
131 139 147 148 148 149 148 146 145 143 140 138 138 138 137 134 130 127 128 129 130 130 128 127 125 121 113 102 88 73 74 104 125 122 114 106 103 105 103 98 94 91 86
139 142 148 149 150 150 150 150 149 148 147 146 147 146 144 142 141 141 140 141 141 140 139 139 138 137 135 125 99 81 82 105 132 131 124 118 115 109 105 99 95 92 87
141 141 145 149 151 153 154 155 154 154 154 154 154 152 150 150 152 154 154 154 153 151 150 150 150 153 159 162 139 98 91 113 140 146 136 132 127 120 113 106 101 97 94
135 140 142 147 150 152 156 160 160 159 160 160 158 156 155 157 159 162 164 165 163 162 161 162 164 168 177 189 185 130 95 123 149 156 148 145 138 131 123 117 111 107 103
145 149 148 149 152 155 158 164 165 165 167 165 163 162 161 164 167 170 175 175 172 172 174 177 180 186 194 210 218 184 98 135 155 161 159 156 149 141 134 127 122 118 114
164 170 167 164 164 163 167 165 166 168 171 168 168 168 170 173 177 180 186 185 183 184 188 194 198 201 211 235 256 262 153 159 169 171 170 163 157 150 145 140 135 131 127
168 172 179 179 175 173 170 167 171 169 172 174 176 178 181 183 187 191 193 195 192 193 198 207 211 216 228 245 259 260 220 188 183 182 178 170 164 161 158 154 150 145 141
168 174 176 176 176 181 176 175 177 173 176 181 187 189 187 187 195 200 198 199 197 198 201 208 215 225 237 248 253 250 224 194 187 184 184 176 172 172 171 167 164 160 156
182 182 177 172 171 175 175 182 183 185 187 191 194 200 198 195 196 199 204 205 205 204 204 209 217 225 233 242 245 240 220 200 193 189 189 185 180 180 181 181 178 175 171
196 194 185 179 176 172 174 181 186 193 196 197 201 205 206 206 201 197 203 206 209 210 210 212 216 222 228 229 233 231 219 204 200 196 195 193 189 187 188 190 190 187 183
201 201 196 193 184 180 182 187 189 191 195 202 208 210 210 212 209 201 202 208 211 212 213 214 219 223 229 227 228 226 216 205 202 202 200 198 196 195 195 198 198 196 193
185 195 203 203 195 196 195 196 198 199 199 204 210 213 214 215 213 208 209 212 210 209 210 210 212 216 224 223 225 225 215 207 206 207 205 204 201 200 201 204 204 203 201
158 168 180 192 197 205 206 207 211 212 214 215 214 216 219 219 216 213 218 219 210 208 210 213 213 207 216 221 222 226 221 212 208 210 210 209 207 204 203 207 208 207 206
105 107 114 113 126 203 207 213 224 231 233 232 228 226 223 223 220 217 223 224 213 212 217 214 213 209 212 211 216 224 229 229 218 213 212 213 213 211 207 207 207 207 206
77 79 77 77 54 72 124 184 213 230 238 239 237 237 233 229 225 220 224 222 217 224 226 219 215 214 219 187 186 240 269 246 236 229 216 213 215 214 211 209 205 202 204
81 73 66 59 50 52 111 194 211 231 244 244 250 251 246 240 235 231 224 228 222 226 229 225 217 218 215 185 182 193 259 283 253 230 214 218 218 213 213 211 206 202 201
77 68 60 45 39 33 21 51 20 25 344 319 281 270 265 259 250 242 237 233 230 225 231 228 219 219 225 210 196 179 195 231 252 263 230 224 215 211 213 210 208 206 204
88 71 56 43 40 31 32 45 51 26 267 268 275 278 288 280 269 259 251 244 241 235 233 232 225 221 220 219 215 223 216 185 197 255 263 234 219 216 212 210 209 209 207
93 72 54 48 40 31 35 40 43 13 294 294 302 303 301 298 290 279 267 256 251 247 242 238 232 225 222 223 210 202 220 227 217 220 255 251 238 225 214 211 208 209 208
84 65 55 52 38 26 28 30 32 11 343 338 333 325 315 307 302 301 294 275 264 258 252 247 242 234 231 229 223 207 199 200 207 214 236 238 235 233 219 213 211 208 206
Height
1539 1542 1545 1547 1549 1551 1553 1555 1556 1557 1558 1559 1559 1559 1559 1559 1559 1559 1559 1559 1560 1560 1560 1559 1559 1558 1559 1560 1560 1561 1561 1561 1561 1561 1560 1560 1559 1558 1557 1557 1556 1556 1556
1538 1542 1545 1547 1549 1552 1553 1555 1556 1558 1558 1559 1559 1560 1560 1560 1560 1560 1560 1561 1561 1561 1561 1560 1560 1559 1560 1560 1561 1561 1562 1562 1562 1562 1561 1561 1560 1560 1559 1559 1558 1558 1558
1539 1542 1545 1548 1550 1552 1554 1555 1557 1558 1559 1559 1560 1560 1560 1560 1561 1561 1562 1562 1563 1563 1562 1562 1561 1561 1561 1562 1562 1562 1563 1563 1563 1563 1563 1562 1562 1562 1561 1561 1560 1560 1559
1540 1542 1545 1548 1550 1552 1554 1555 1557 1558 1559 1560 1560 1560 1561 1561 1562 1563 1563 1564 1564 1564 1564 1564 1563 1563 1563 1563 1564 1564 1564 1564 1564 1564 1564 1564 1564 1563 1563 1562 1562 1561 1561
1540 1542 1545 1548 1550 1552 1554 1556 1557 1558 1559 1560 1560 1561 1561 1562 1563 1564 1564 1565 1565 1565 1566 1566 1565 1565 1565 1565 1565 1565 1565 1565 1565 1565 1565 1565 1565 1565 1564 1564 1563 1563 1563
1540 1543 1545 1548 1551 1553 1554 1556 1557 1558 1559 1560 1561 1561 1562 1563 1563 1564 1565 1566 1566 1567 1567 1567 1567 1567 1567 1567 1567 1567 1566 1566 1566 1566 1566 1566 1566 1566 1565 1565 1565 1564 1564
1540 1543 1545 1548 1551 1553 1554 1556 1557 1558 1559 1560 1561 1562 1563 1563 1564 1565 1566 1567 1567 1568 1568 1569 1569 1569 1569 1569 1569 1568 1568 1567 1567 1567 1567 1567 1567 1566 1566 1566 1565 1565 1565
1541 1543 1546 1549 1551 1553 1554 1556 1557 1559 1560 1560 1561 1562 1563 1564 1564 1565 1566 1567 1568 1569 1569 1570 1570 1570 1570 1570 1570 1570 1569 1569 1568 1568 1568 1567 1567 1567 1567 1566 1566 1566 1565
1542 1544 1546 1548 1551 1553 1554 1556 1557 1559 1560 1561 1562 1562 1563 1564 1565 1566 1567 1568 1568 1569 1570 1571 1571 1571 1571 1571 1571 1571 1570 1569 1569 1569 1568 1568 1568 1567 1566 1566 1565 1565 1565
1542 1544 1546 1548 1550 1552 1554 1556 1557 1558 1560 1561 1562 1563 1564 1564 1565 1566 1567 1568 1569 1570 1570 1571 1571 1572 1572 1572 1572 1571 1571 1570 1570 1569 1569 1568 1568 1567 1566 1566 1565 1564 1564
1542 1544 1545 1547 1550 1552 1554 1555 1557 1558 1559 1560 1562 1563 1564 1565 1566 1566 1567 1568 1569 1570 1570 1571 1571 1572 1572 1572 1572 1571 1571 1570 1570 1569 1569 1568 1568 1567 1566 1566 1565 1564 1563
1541 1543 1545 1547 1549 1551 1553 1554 1556 1557 1558 1559 1561 1562 1563 1564 1565 1566 1567 1568 1569 1570 1570 1571 1571 1571 1571 1571 1571 1571 1570 1570 1570 1569 1569 1568 1567 1567 1566 1565 1564 1563 1562
1541 1543 1544 1546 1548 1550 1552 1553 1555 1556 1557 1558 1560 1561 1562 1563 1564 1565 1566 1567 1568 1569 1570 1570 1570 1571 1571 1571 1571 1570 1569 1569 1569 1568 1568 1567 1567 1566 1565 1564 1563 1563 1562
1541 1542 1544 1545 1547 1549 1551 1552 1554 1555 1556 1557 1559 1560 1560 1561 1562 1564 1565 1566 1567 1568 1568 1569 1569 1569 1570 1570 1570 1569 1569 1568 1568 1567 1567 1566 1566 1565 1564 1563 1562 1561 1561
1540 1541 1542 1544 1545 1547 1549 1550 1552 1553 1555 1556 1557 1558 1559 1560 1560 1562 1563 1564 1564 1565 1566 1566 1567 1567 1567 1567 1568 1567 1567 1566 1566 1565 1565 1565 1564 1564 1563 1562 1561 1560 1559
1539 1540 1542 1543 1544 1545 1547 1548 1550 1551 1553 1554 1555 1556 1557 1558 1558 1559 1560 1560 1561 1562 1563 1564 1564 1564 1564 1564 1564 1564 1564 1564 1563 1563 1563 1562 1562 1561 1561 1560 1559 1558 1558
1537 1539 1540 1542 1543 1544 1545 1546 1548 1549 1550 1552 1553 1554 1555 1556 1556 1556 1557 1557 1558 1559 1560 1560 1560 1560 1560 1560 1560 1560 1561 1561 1560 1560 1560 1559 1559 1559 1558 1558 1557 1556 1556
1535 1536 1538 1540 1541 1542 1543 1545 1546 1547 1548 1549 1550 1551 1552 1553 1553 1554 1554 1554 1555 1556 1556 1556 1556 1556 1556 1556 1556 1556 1557 1557 1557 1557 1556 1555 1555 1555 1555 1555 1554 1554 1554
1532 1534 1535 1537 1538 1540 1541 1542 1543 1544 1545 1546 1547 1548 1549 1549 1550 1550 1550 1551 1552 1552 1552 1552 1552 1552 1552 1552 1552 1552 1553 1552 1553 1553 1552 1551 1551 1551 1552 1552 1551 1551 1551
1529 1531 1532 1533 1535 1536 1537 1538 1540 1540 1541 1542 1543 1544 1545 1546 1546 1546 1546 1547 1547 1547 1547 1547 1547 1548 1548 1548 1548 1548 1548 1548 1547 1547 1547 1547 1547 1547 1547 1547 1548 1548 1548
1526 1528 1529 1530 1531 1532 1533 1534 1535 1535 1537 1538 1539 1540 1540 1541 1541 1541 1541 1542 1542 1542 1542 1543 1543 1543 1543 1543 1543 1542 1542 1542 1541 1541 1541 1541 1541 1541 1541 1542 1542 1543 1543
1523 1524 1525 1526 1527 1528 1529 1530 1530 1531 1532 1532 1533 1534 1535 1535 1536 1536 1536 1536 1536 1536 1536 1537 1537 1536 1536 1537 1537 1536 1535 1535 1533 1534 1534 1534 1534 1535 1535 1535 1536 1537 1539
1519 1520 1521 1522 1523 1523 1524 1525 1525 1526 1526 1527 1527 1528 1528 1529 1529 1529 1529 1530 1530 1530 1529 1530 1530 1530 1529 1530 1530 1531 1528 1525 1527 1526 1526 1526 1526 1527 1527 1528 1529 1530 1532
1516 1517 1518 1518 1518 1519 1519 1519 1520 1520 1520 1521 1521 1521 1522 1522 1522 1522 1522 1522 1522 1522 1522 1523 1523 1523 1523 1522 1522 1522 1522 1521 1521 1519 1519 1519 1519 1519 1520 1521 1521 1523 1524
1513 1514 1514 1514 1515 1515 1515 1515 1515 1515 1515 1515 1515 1515 1515 1515 1515 1515 1515 1515 1515 1515 1515 1515 1515 1515 1515 1515 1514 1514 1514 1514 1513 1513 1511 1511 1511 1511 1512 1513 1513 1514 1516
1510 1511 1511 1511 1511 1511 1511 1511 1510 1510 1510 1510 1509 1509 1509 1509 1509 1508 1508 1508 1507 1507 1507 1508 1508 1508 1508 1507 1507 1507 1506 1505 1504 1505 1504 1502 1503 1504 1504 1504 1505 1505 1507